Lid_Strength_Index
4 4 3 3 2 2 2 2 2 2 2 2 2 2 2 2 3 5 7 4 2 0 2 6 6 6 6 7 6 6 9 11 11 10 10 9 8 7 6 6 6 6 6 5 3
5 4 4 3 3 2 2 2 2 2 2 2 2 2 2 3 6 7 3 1 1 2 6 7 8 7 8 8 8 7 9 11 10 10 10 9 8 8 8 8 8 7 5 4 4
5 5 4 4 3 3 2 2 2 2 2 2 1 2 2 4 8 8 2 1 1 4 6 7 8 8 10 8 9 9 10 10 10 9 9 9 8 7 8 9 7 7 6 6 5
5 5 5 4 4 4 3 2 2 2 2 1 1 2 3 6 11 6 2 2 2 5 6 7 8 9 10 11 9 11 10 10 9 9 9 9 8 9 8 8 6 6 6 6 6
5 5 5 5 4 4 3 3 2 2 2 1 1 3 6 8 9 5 3 4 4 5 7 8 9 9 11 10 9 10 10 10 9 9 9 9 10 9 9 7 7 7 7 7 6
4 4 5 5 5 4 4 3 3 2 2 1 2 3 7 11 6 5 6 4 5 5 7 8 9 8 10 10 10 10 10 10 9 9 9 10 10 10 9 7 7 7 7 7 7
4 4 4 5 5 5 4 4 3 2 2 2 3 6 8 9 6 5 5 5 5 6 7 7 7 8 9 10 10 10 11 10 10 10 10 9 11 11 9 8 8 8 8 8 7
4 4 4 4 5 4 4 4 3 2 2 2 4 6 10 6 5 6 5 5 5 6 7 7 6 8 9 9 10 11 11 13 11 10 10 10 13 10 9 9 8 8 8 8 7
4 4 4 4 4 4 4 4 5 4 3 3 7 8 11 5 8 7 6 7 6 7 7 8 7 9 10 12 12 12 14 14 13 11 11 11 12 10 9 9 8 8 8 8 7
4 4 4 4 4 4 4 4 6 5 6 8 8 9 9 10 8 8 6 7 7 8 8 9 10 11 11 12 14 15 14 14 13 12 11 12 11 9 9 9 7 7 8 8 7
3 3 4 4 4 4 6 8 9 10 9 12 11 11 10 8 8 8 7 8 8 9 12 11 12 14 13 13 13 13 14 14 13 12 12 12 11 10 9 8 8 8 8 7 7
3 3 4 5 4 6 7 10 10 9 13 11 11 10 9 9 11 9 7 10 10 12 13 12 14 13 12 12 13 13 14 13 12 12 12 12 12 11 10 9 8 8 7 7 7
3 3 4 5 5 6 8 9 7 8 12 13 12 11 10 10 11 11 9 10 12 13 14 14 14 12 13 13 14 14 15 14 14 12 12 13 13 12 11 9 8 7 7 7 7
3 4 5 5 8 8 9 7 7 8 12 14 14 12 11 11 12 9 9 10 12 14 14 14 13 14 14 15 14 16 13 13 14 13 15 13 15 12 11 10 8 8 7 7 7
3 4 5 6 8 9 8 7 7 8 19 14 14 10 11 12 12 11 10 10 13 13 15 16 15 15 15 15 13 15 13 13 14 14 14 14 14 12 12 11 9 8 8 8 8
3 5 5 7 7 7 7 7 7 14 18 15 14 14 14 13 13 11 12 10 11 13 14 15 13 13 14 14 13 13 14 15 15 15 16 16 16 13 12 12 10 8 8 8 8
4 6 7 7 9 7 7 7 14 19 14 15 16 15 15 15 14 14 14 14 14 14 15 16 16 14 13 15 14 15 17 17 18 19 17 17 17 13 11 11 10 9 8 8 8
5 6 7 8 7 7 7 10 17 14 14 16 15 16 16 15 15 14 15 15 15 16 18 15 15 16 14 15 15 16 17 17 17 17 17 18 17 13 11 10 10 9 9 8 8
5 7 8 8 8 7 8 15 15 13 13 15 16 15 16 16 16 16 15 16 16 16 14 17 17 15 15 14 14 16 17 16 20 23 19 17 15 13 12 10 10 10 10 9 8
6 8 8 7 8 7 12 13 13 13 14 14 13 14 14 17 16 16 16 15 16 16 16 16 16 17 16 14 14 15 15 18 17 18 17 17 19 15 13 12 10 10 10 10 9
6 8 8 7 8 10 15 14 13 13 13 12 14 16 15 15 16 16 16 16 15 16 16 17 15 18 17 16 16 16 16 18 17 19 18 18 15 12 12 11 11 10 10 10 10
8 13 8 8 14 16 15 14 13 14 13 14 13 14 14 16 16 16 16 16 15 15 17 17 16 18 16 17 16 16 16 17 19 18 20 19 16 13 12 12 12 11 10 11 10
10 11 8 9 15 16 15 14 13 15 14 14 14 13 14 15 15 16 16 15 15 15 16 16 16 16 17 18 17 17 16 16 18 18 19 17 13 15 14 13 12 12 11 12 11
11 15 12 11 13 13 15 14 15 13 13 13 15 14 15 16 16 16 16 15 15 15 14 15 18 16 15 15 16 18 18 16 17 18 18 18 14 13 14 14 13 13 12 12 12
11 15 14 16 16 13 13 13 15 15 14 14 15 13 14 16 16 17 16 16 15 14 16 17 18 21 19 18 18 17 17 17 19 17 15 15 19 14 13 14 14 13 13 12 13
13 14 13 15 14 13 13 14 13 14 14 15 14 14 13 13 12 15 16 16 15 15 16 17 18 21 19 21 20 20 18 17 18 18 19 18 18 13 12 13 14 13 13 12 11
9 10 9 13 14 13 13 12 12 12 13 13 13 14 15 12 13 14 14 14 14 15 16 18 19 20 17 22 22 18 19 18 17 16 16 18 14 13 14 14 12 12 12 12 11